This demonstration page uses our WeatherBlox Daily Observations layout. Learn more.

Left ArrowRight Arrow

41.12389, -100.76542

Hourly Observations for March 15, 2019

Temp ( °F °C ) Dew Point ( °F °C ) Humidity (%) Winds ( mph kmh ) Pressure ( in mb ) Visibility ( mi km ) Precip ( " mm )
12:53 am 00:53 Clear 26 -3.3 19 -7.2 75 75 NW 10 17 30.33 1027 10 16 0.00 0.00
1:53 am 01:53 Clear 28 -2.2 18 -7.8 66 66 NNW 12 19 30.33 1027 10 16 0.00 0.00
2:53 am 02:53 Clear 25 -3.9 18 -7.8 75 75 NNW 9 15 30.35 1028 10 16 0.00 0.00
3:53 am 03:53 Clear 23 -5 19 -7.2 85 85 NW 12 19 30.36 1028 10 16 0.00 0.00
4:53 am 04:53 Clear 23 -5 18 -7.8 81 81 NW 12 19 30.37 1028 10 16 0.00 0.00
5:53 am 05:53 Clear 21 -6.1 17 -8.3 85 85 NW 9 15 30.38 1029 10 16 0.00 0.00
6:53 am 06:53 Clear 22 -5.6 17 -8.3 82 82 NW 9 15 30.40 1030 10 16 0.00 0.00
7:53 am 07:53 Clear 21 -6.1 17 -8.3 85 85 WNW 9 15 30.42 1030 10 16 0.00 0.00
8:53 am 08:53 Sunny 25 -3.9 19 -7.2 78 78 NW 9 15 30.42 1030 N/A 0.00 0.00
9:17 am 09:17 Hazy 27 -2.8 19 -7.2 72 72 NW 10 17 30.49 1032 1 2 0.00 0.00
9:31 am 09:31 Sunny 28 -2.2 20 -6.7 72 72 NW 10 17 30.48 1032 10 16 0.00 0.00
9:53 am 09:53 Sunny 29 -1.7 20 -6.7 69 69 NW 9 15 30.43 1031 10 16 0.00 0.00
10:53 am 10:53 Sunny 34 1.1 22 -5.6 61 61 W 9 15 30.43 1031 10 16 0.00 0.00
11:53 am 11:53 Sunny 40 4.4 23 -5 51 51 WNW 10 17 30.42 1030 10 16 0.00 0.00
12:53 pm 12:53 Sunny 43 6.1 21 -6.1 42 42 NW 13 20 30.40 1030 10 16 0.00 0.00
1:53 pm 13:53 Sunny 45 7.2 18 -7.8 34 34 NW 8 13 30.39 1029 10 16 0.00 0.00
2:53 pm 14:53 Sunny 46 7.8 18 -7.8 32 32 NNW 12 19 30.38 1029 10 16 0.00 0.00
3:53 pm 15:53 Sunny 47 8.3 20 -6.7 34 34 WNW 14 22 30.36 1028 10 16 0.00 0.00
4:53 pm 16:53 Sunny 47 8.3 19 -7.2 33 33 NW 12 19 30.36 1028 10 16 0.00 0.00
5:53 pm 17:53 Sunny 47 8.3 21 -6.1 36 36 W 12 19 30.35 1028 10 16 0.00 0.00
6:53 pm 18:53 Sunny 45 7.2 21 -6.1 39 39 WNW 9 15 30.34 1028 10 16 0.00 0.00
7:53 pm 19:53 Clear 38 3.3 22 -5.6 52 52 W 6 9 30.36 1028 10 16 0.00 0.00
8:53 pm 20:53 Clear 35 1.7 23 -5 61 61 W 6 9 30.36 1028 10 16 0.00 0.00
9:53 pm 21:53 Clear 29 -1.7 22 -5.6 75 75 NNW 3 6 30.38 1029 10 16 0.00 0.00
10:53 pm 22:53 Clear 29 -1.7 23 -5 78 78 Calm 30.37 1029 10 16 0.00 0.00
11:53 pm 23:53 Clear 22 -5.6 19 -7.2 89 89 NW 5 7 30.39 1029 10 16 0.00 0.00

Powered by AerisWeather